����,���ϕ���(m/s),���ϕ���,�ő�u�ԕ���(m/s),�ő啗��������,�C��(��),���x(%),10���Ԉړ��ώZ�J��(mm),1���Ԉړ��ώZ�J��(mm),���J��(mm),�݌v�J��(mm),����(���ώZ)(MJ/m2),����(���ώZ)(min),���n�C��(hPa),�C�ʋC��(hPa)
2022-02-21T00:00:00+09:00,0.6,�k��,1.1,�k��,-0.3,92,0,0,3.5,15,12.25,326,1005.9,1020.6
2022-02-21T00:01:00+09:00,0.6,�k�k��,1.1,�k��,-0.4,92.2,0,0,0,15,0,0,1005.8,1020.5
2022-02-21T00:02:00+09:00,0.6,�k�k��,1.1,�k��,-0.4,92,0,0,0,15,0,0,1005.8,1020.5
2022-02-21T00:03:00+09:00,0.6,�k�k��,1.1,�k��,-0.5,92.1,0,0,0,15,0,0,1005.8,1020.5
2022-02-21T00:04:00+09:00,0.6,�k��,1.4,�k�k��,-0.6,91.7,0,0,0,15,0,0,1005.8,1020.5
2022-02-21T00:05:00+09:00,0.6,�k��,1.4,�k�k��,-0.5,92.4,0,0,0,15,0,0,1006,1020.7
2022-02-21T00:06:00+09:00,0.7,�k��,1.4,�k�k��,-0.5,92.5,0,0,0,15,0,0,1006.1,1020.8
2022-02-21T00:07:00+09:00,0.7,�k��,1.4,�k�k��,-0.5,92.6,0,0,0,15,0,0,1006.1,1020.8
2022-02-21T00:08:00+09:00,0.7,�k�k��,1.4,�k�k��,-0.4,92.8,0.5,0.5,0.5,15.5,0,0,1006,1020.7
2022-02-21T00:09:00+09:00,0.7,�k�k��,1.4,�k�k��,-0.5,93,0.5,0.5,0.5,15.5,0,0,1005.9,1020.6
2022-02-21T00:10:00+09:00,0.7,�k�k��,1.4,�k�k��,-0.4,92.8,0.5,0.5,0.5,15.5,0,0,1005.8,1020.5
2022-02-21T00:11:00+09:00,0.7,�k�k��,1.4,�k�k��,-0.4,93.1,0.5,0.5,0.5,15.5,0,0,1005.9,1020.6
2022-02-21T00:12:00+09:00,0.6,�k��,1.4,�k�k��,-0.5,93,0.5,0.5,0.5,15.5,0,0,1005.9,1020.6
2022-02-21T00:13:00+09:00,0.7,�k��,1.4,�k�k��,-0.7,92.2,0.5,0.5,0.5,15.5,0,0,1005.8,1020.5
2022-02-21T00:14:00+09:00,0.7,�k��,1.4,���k��,-0.6,92.5,0.5,0.5,0.5,15.5,0,0,1005.9,1020.6
2022-02-21T00:15:00+09:00,0.7,�k��,1.4,���k��,-0.6,92.9,0.5,0.5,0.5,15.5,0,0,1005.8,1020.5
2022-02-21T00:16:00+09:00,0.6,�k��,1.4,���k��,-0.4,93.3,0.5,0.5,0.5,15.5,0,0,1005.8,1020.5
2022-02-21T00:17:00+09:00,0.6,���k��,1.4,���k��,-0.5,93.6,0.5,0.5,0.5,15.5,0,0,1005.8,1020.5
2022-02-21T00:18:00+09:00,0.6,���k��,1.5,��,-0.5,93.3,0,0.5,0.5,15.5,0,0,1005.8,1020.5
2022-02-21T00:19:00+09:00,0.6,���k��,1.5,��,-0.4,93.4,0,0.5,0.5,15.5,0,0,1005.8,1020.5
2022-02-21T00:20:00+09:00,0.6,���k��,1.5,��,-0.4,93.7,0,0.5,0.5,15.5,0,0,1005.9,1020.6
2022-02-21T00:21:00+09:00,0.6,���k��,1.5,��,-0.5,93.4,0,0.5,0.5,15.5,0,0,1005.9,1020.6
2022-02-21T00:22:00+09:00,0.6,���k��,1.5,��,-0.5,93.3,0,0.5,0.5,15.5,0,0,1006,1020.7
2022-02-21T00:23:00+09:00,0.6,���k��,1.5,��,-0.6,93.4,0,0.5,0.5,15.5,0,0,1006,1020.7
2022-02-21T00:24:00+09:00,0.6,���k��,1.5,��,-0.6,93.2,0,0.5,0.5,15.5,0,0,1005.9,1020.6
2022-02-21T00:25:00+09:00,0.5,���k��,1.5,��,-0.7,93.3,0,0.5,0.5,15.5,0,0,1005.9,1020.6
2022-02-21T00:26:00+09:00,0.4,��,1.5,��,-0.6,93.4,0,0.5,0.5,15.5,0,0,1006,1020.7
2022-02-21T00:27:00+09:00,0.4,��,1.5,��,-0.7,93.6,0,0.5,0.5,15.5,0,0,1006,1020.7
2022-02-21T00:28:00+09:00,0.3,��,0.9,�k��,-0.7,93.5,0,0.5,0.5,15.5,0,0,1006,1020.7
2022-02-21T00:29:00+09:00,0.3,���쓌,0.9,��쓌,-0.5,93.7,0,0.5,0.5,15.5,0,0,1005.9,1020.6
2022-02-21T00:30:00+09:00,0.3,���쓌,0.9,��쓌,-0.5,94.1,0,0.5,0.5,15.5,0,0,1005.8,1020.5
2022-02-21T00:31:00+09:00,0.3,���쓌,0.9,��쓌,-0.5,94,0,0.5,0.5,15.5,0,0,1005.9,1020.6
2022-02-21T00:32:00+09:00,0.3,���쓌,0.9,��쓌,-0.5,93.9,0,0.5,0.5,15.5,0,0,1006,1020.7
2022-02-21T00:33:00+09:00,0.2,�É�,0.9,��쓌,-0.6,93.8,0,0.5,0.5,15.5,0,0,1006,1020.7
2022-02-21T00:34:00+09:00,0.2,�É�,0.9,��쓌,-0.6,93.8,0,0.5,0.5,15.5,0,0,1006,1020.7
2022-02-21T00:35:00+09:00,0.2,�É�,0.9,��쓌,-0.4,94.1,0,0.5,0.5,15.5,0,0,1006,1020.7
2022-02-21T00:36:00+09:00,0.2,�É�,0.9,��쓌,-0.4,94.5,0,0.5,0.5,15.5,0,0,1006.1,1020.8
2022-02-21T00:37:00+09:00,0.2,�É�,0.9,��쓌,-0.3,94.2,0,0.5,0.5,15.5,0,0,1006,1020.7
2022-02-21T00:38:00+09:00,0.2,�É�,0.9,��쓌,-0.3,94.5,0,0.5,0.5,15.5,0,0,1006,1020.7
2022-02-21T00:39:00+09:00,0.2,�É�,0.8,�쐼,-0.3,94.7,0,0.5,0.5,15.5,0,0,1006,1020.7
2022-02-21T00:40:00+09:00,0.2,�É�,0.8,�쐼,-0.3,94.1,0,0.5,0.5,15.5,0,0,1006.1,1020.8
2022-02-21T00:41:00+09:00,0.2,�É�,1,�쐼,-0.2,94.2,0,0.5,0.5,15.5,0,0,1006,1020.7
2022-02-21T00:42:00+09:00,0.2,�É�,1,�쐼,-0.3,94.3,0,0.5,0.5,15.5,0,0,1006,1020.7
2022-02-21T00:43:00+09:00,0.3,��,1.2,��,-0.6,93.4,0,0.5,0.5,15.5,0,0,1006,1020.7
2022-02-21T00:44:00+09:00,0.4,��,1.2,��,-0.6,92.9,0,0.5,0.5,15.5,0,0,1006.1,1020.8
2022-02-21T00:45:00+09:00,0.4,��쐼,1.3,��,-0.6,93,0,0.5,0.5,15.5,0,0,1006.1,1020.8
2022-02-21T00:46:00+09:00,0.5,��쐼,1.4,��,-0.6,93.4,0,0.5,0.5,15.5,0,0,1006.1,1020.8
2022-02-21T00:47:00+09:00,0.6,��쐼,1.6,��,-0.6,93.4,0,0.5,0.5,15.5,0,0,1006.1,1020.8
2022-02-21T00:48:00+09:00,0.7,��쐼,1.7,��,-0.7,93.1,0,0.5,0.5,15.5,0,0,1006.1,1020.8
2022-02-21T00:49:00+09:00,0.8,��쐼,1.7,��,-0.7,93.1,0,0.5,0.5,15.5,0,0,1006.1,1020.8
2022-02-21T00:50:00+09:00,0.8,��쐼,1.7,��,-0.6,93.7,0,0.5,0.5,15.5,0,0,1006,1020.7
2022-02-21T00:51:00+09:00,0.9,��쐼,1.7,��,-0.6,93.7,0,0.5,0.5,15.5,0,0,1006,1020.7
2022-02-21T00:52:00+09:00,0.9,��쐼,1.7,��,-0.7,93.3,0,0.5,0.5,15.5,0,0,1006,1020.7
2022-02-21T00:53:00+09:00,0.9,��,1.7,��,-0.7,93.3,0,0.5,0.5,15.5,0,0,1006,1020.7
2022-02-21T00:54:00+09:00,0.9,��,1.7,��,-0.7,93.3,0,0.5,0.5,15.5,0,0,1006,1020.7
2022-02-21T00:55:00+09:00,0.9,��,1.7,��,-0.6,93.7,0,0.5,0.5,15.5,0,0,1006.1,1020.8
2022-02-21T00:56:00+09:00,0.9,��,1.7,��,-0.7,93.7,0,0.5,0.5,15.5,0,0,1006.2,1020.9
2022-02-21T00:57:00+09:00,0.8,��쐼,1.7,��,-0.4,93.9,0,0.5,0.5,15.5,0,0,1006.2,1020.9
2022-02-21T00:58:00+09:00,0.9,��쐼,1.6,��,-0.6,94.1,0,0.5,0.5,15.5,0,0,1006.3,1021
2022-02-21T00:59:00+09:00,0.9,��쐼,1.7,�쐼,-0.7,93.2,0,0.5,0.5,15.5,0,0,1006.4,1021.1
2022-02-21T01:00:00+09:00,0.9,��쐼,1.7,�쐼,-0.6,93.6,0,0.5,0.5,15.5,0,0,1006.4,1021.1
2022-02-21T01:01:00+09:00,0.9,��쐼,1.7,�쐼,-0.7,93.6,0,0.5,0.5,15.5,0,0,1006.4,1021.1
2022-02-21T01:02:00+09:00,0.8,��쐼,1.7,�쐼,-0.8,93.2,0,0.5,0.5,15.5,0,0,1006.4,1021.1
2022-02-21T01:03:00+09:00,0.7,��쐼,1.7,�쐼,-0.7,93.3,0,0.5,0.5,15.5,0,0,1006.5,1021.2
2022-02-21T01:04:00+09:00,0.7,��쐼,1.7,�쐼,-0.6,93.8,0,0.5,0.5,15.5,0,0,1006.5,1021.2
2022-02-21T01:05:00+09:00,0.7,��쐼,1.7,�쐼,-0.6,93.9,0,0.5,0.5,15.5,0,0,1006.4,1021.1
2022-02-21T01:06:00+09:00,0.6,��쐼,1.7,�쐼,-0.5,93.9,0,0.5,0.5,15.5,0,0,1006.4,1021.1
2022-02-21T01:07:00+09:00,0.6,��쐼,1.7,�쐼,-0.6,93.7,0,0.5,0.5,15.5,0,0,1006.5,1021.2
2022-02-21T01:08:00+09:00,0.5,�쐼,1.7,�쐼,-0.6,93.8,0,0,0.5,15.5,0,0,1006.4,1021.1
2022-02-21T01:09:00+09:00,0.3,�쐼,1.3,��쐼,-0.6,93.9,0,0,0.5,15.5,0,0,1006.4,1021.1
2022-02-21T01:10:00+09:00,0.3,��쐼,1.2,�쐼,-0.6,93.8,0,0,0.5,15.5,0,0,1006.4,1021.1
2022-02-21T01:11:00+09:00,0.2,�É�,0.9,��쐼,-0.4,94.2,0,0,0.5,15.5,0,0,1006.3,1021
2022-02-21T01:12:00+09:00,0.2,�É�,0.9,��쐼,-0.6,94.4,0,0,0.5,15.5,0,0,1006.4,1021.1
2022-02-21T01:13:00+09:00,0.2,�É�,0.9,��쐼,-0.7,93.6,0,0,0.5,15.5,0,0,1006.4,1021.1
2022-02-21T01:14:00+09:00,0.3,���k��,0.9,��쐼,-0.8,93.4,0,0,0.5,15.5,0,0,1006.4,1021.1
2022-02-21T01:15:00+09:00,0.2,�É�,0.9,���k��,-0.8,93.5,0,0,0.5,15.5,0,0,1006.3,1021
2022-02-21T01:16:00+09:00,0.2,�É�,0.9,���k��,-0.8,93.6,0,0,0.5,15.5,0,0,1006.3,1021
2022-02-21T01:17:00+09:00,0.2,�É�,0.9,���k��,-0.8,93.7,0,0,0.5,15.5,0,0,1006.3,1021
2022-02-21T01:18:00+09:00,0.2,�É�,0.9,���k��,-0.8,93.7,0,0,0.5,15.5,0,0,1006.3,1021
2022-02-21T01:19:00+09:00,0.2,�É�,0.9,���k��,-0.9,93.6,0,0,0.5,15.5,0,0,1006.3,1021
2022-02-21T01:20:00+09:00,0.3,���쓌,0.9,���k��,-0.8,94,0,0,0.5,15.5,0,0,1006.3,1021
2022-02-21T01:21:00+09:00,0.3,���쓌,0.9,���k��,-0.7,94.3,0,0,0.5,15.5,0,0,1006.3,1021
2022-02-21T01:22:00+09:00,0.2,�É�,0.9,���k��,-0.7,94.4,0,0,0.5,15.5,0,0,1006.3,1021
2022-02-21T01:23:00+09:00,0.2,�É�,0.9,���k��,-0.8,94.2,0,0,0.5,15.5,0,0,1006.3,1021
2022-02-21T01:24:00+09:00,0.2,�É�,0.9,���k��,-0.7,94.3,0,0,0.5,15.5,0,0,1006.3,1021
2022-02-21T01:25:00+09:00,0.1,�É�,0.9,���k��,-0.7,94.4,0,0,0.5,15.5,0,0,1006.3,1021
2022-02-21T01:26:00+09:00,0.1,�É�,0.9,���k��,-0.8,94.3,0,0,0.5,15.5,0,0,1006.3,1021
2022-02-21T01:27:00+09:00,0.1,�É�,0.9,���k��,-0.8,94.2,0,0,0.5,15.5,0,0,1006.2,1020.9
2022-02-21T01:28:00+09:00,0.1,�É�,0.9,���k��,-0.7,94.5,0,0,0.5,15.5,0,0,1006.2,1020.9
2022-02-21T01:29:00+09:00,0.1,�É�,0.9,���k��,-0.8,94.4,0,0,0.5,15.5,0,0,1006.1,1020.8
2022-02-21T01:30:00+09:00,0.1,�É�,0.5,���k��,-0.9,94.3,0,0,0.5,15.5,0,0,1006.1,1020.8
2022-02-21T01:31:00+09:00,0.1,�É�,0.6,��,-0.8,94.3,0,0,0.5,15.5,0,0,1006,1020.7
2022-02-21T01:32:00+09:00,0.1,�É�,0.6,��,-0.8,94.5,0,0,0.5,15.5,0,0,1006,1020.7
2022-02-21T01:33:00+09:00,0.2,�É�,0.8,���k��,-0.8,94.4,0,0,0.5,15.5,0,0,1006.1,1020.8
2022-02-21T01:34:00+09:00,0.2,�É�,0.8,���k��,-0.8,94.8,0,0,0.5,15.5,0,0,1006.2,1020.9
2022-02-21T01:35:00+09:00,0.2,�É�,0.8,���k��,-0.8,94.7,0,0,0.5,15.5,0,0,1006.2,1020.9
2022-02-21T01:36:00+09:00,0.2,�É�,0.8,���k��,-0.8,94.6,0,0,0.5,15.5,0,0,1006.3,1021
2022-02-21T01:37:00+09:00,0.2,�É�,0.8,���k��,-0.8,94.6,0,0,0.5,15.5,0,0,1006.3,1021
2022-02-21T01:38:00+09:00,0.2,�É�,0.8,���k��,-0.7,95,0,0,0.5,15.5,0,0,1006.3,1021
2022-02-21T01:39:00+09:00,0.2,�É�,0.8,���k��,-0.6,95.1,0,0,0.5,15.5,0,0,1006.3,1021
2022-02-21T01:40:00+09:00,0.2,�É�,0.9,�쐼,-0.6,95.2,0,0,0.5,15.5,0,0,1006.2,1020.9
2022-02-21T01:41:00+09:00,0.2,�É�,0.9,�쐼,-0.5,95.2,0,0,0.5,15.5,0,0,1006.2,1020.9
2022-02-21T01:42:00+09:00,0.2,�É�,1,�쐼,-0.5,95.4,0,0,0.5,15.5,0,0,1006.3,1021
2022-02-21T01:43:00+09:00,0.2,�É�,1,�쐼,-0.7,95,0,0,0.5,15.5,0,0,1006.3,1021
2022-02-21T01:44:00+09:00,0.3,��,1.2,�쐼,-0.4,95,0,0,0.5,15.5,0,0,1006.3,1021
2022-02-21T01:45:00+09:00,0.4,��쐼,1.2,�쐼,-0.6,95.1,0,0,0.5,15.5,0,0,1006.3,1021
2022-02-21T01:46:00+09:00,0.4,��쐼,1.2,�쐼,-0.5,95,0,0,0.5,15.5,0,0,1006.3,1021
2022-02-21T01:47:00+09:00,0.5,�쐼,1.2,�쐼,-0.6,95,0,0,0.5,15.5,0,0,1006.3,1021
2022-02-21T01:48:00+09:00,0.6,�쐼,1.2,�쐼,-0.6,95,0,0,0.5,15.5,0,0,1006.4,1021.1
2022-02-21T01:49:00+09:00,0.7,�쐼,1.2,�쐼,-0.7,94.6,0,0,0.5,15.5,0,0,1006.3,1021
2022-02-21T01:50:00+09:00,0.6,�쐼,1.2,�쐼,-0.5,95,0,0,0.5,15.5,0,0,1006.3,1021
2022-02-21T01:51:00+09:00,0.6,�쐼,1.2,�쐼,-0.6,95.1,0,0,0.5,15.5,0,0,1006.3,1021
2022-02-21T01:52:00+09:00,0.6,��쐼,1.2,�쐼,-0.3,95.3,0,0,0.5,15.5,0,0,1006.4,1021.1
2022-02-21T01:53:00+09:00,0.7,��쐼,1.2,�쐼,-0.3,95.6,0,0,0.5,15.5,0,0,1006.5,1021.2
2022-02-21T01:54:00+09:00,0.7,��쐼,1.1,�쐼,-0.3,95.6,0,0,0.5,15.5,0,0,1006.4,1021.1
2022-02-21T01:55:00+09:00,0.7,��쐼,1.1,�쐼,-0.6,94.9,0,0,0.5,15.5,0,0,1006.5,1021.2
2022-02-21T01:56:00+09:00,0.7,��쐼,1.1,�쐼,-0.5,94.6,0,0,0.5,15.5,0,0,1006.4,1021.1
2022-02-21T01:57:00+09:00,0.6,��쐼,1.1,�쐼,-0.7,94.7,0,0,0.5,15.5,0,0,1006.3,1021
2022-02-21T01:58:00+09:00,0.6,��쐼,1.1,�쐼,-0.8,94.2,0,0,0.5,15.5,0,0,1006.3,1021
2022-02-21T01:59:00+09:00,0.6,��쐼,1.1,�쐼,-0.8,94.2,0,0,0.5,15.5,0,0,1006.3,1021
2022-02-21T02:00:00+09:00,0.6,��쐼,1.1,�쐼,-0.7,94.5,0,0,0.5,15.5,0,0,1006.3,1021
2022-02-21T02:01:00+09:00,0.6,��쐼,1.1,�쐼,-0.8,94.5,0,0,0.5,15.5,0,0,1006.3,1021
2022-02-21T02:02:00+09:00,0.5,��쐼,1.1,�쐼,-0.7,94.7,0,0,0.5,15.5,0,0,1006.2,1020.9
2022-02-21T02:03:00+09:00,0.5,��쐼,1,�쐼,-0.8,94.7,0,0,0.5,15.5,0,0,1006.2,1020.9
2022-02-21T02:04:00+09:00,0.4,��쐼,1,�쐼,-0.7,94.8,0,0,0.5,15.5,0,0,1006.2,1020.9
2022-02-21T02:05:00+09:00,0.4,��쐼,0.8,�쐼,-0.8,94.5,0,0,0.5,15.5,0,0,1006.2,1020.9
2022-02-21T02:06:00+09:00,0.3,��쐼,0.8,�쐼,-0.9,94.2,0,0,0.5,15.5,0,0,1006.2,1020.9
2022-02-21T02:07:00+09:00,0.4,��쐼,0.8,�쐼,-0.9,94.3,0,0,0.5,15.5,0,0,1006.2,1020.9
2022-02-21T02:08:00+09:00,0.4,��쐼,1.2,��,-0.9,94.4,0,0,0.5,15.5,0,0,1006.3,1021
2022-02-21T02:09:00+09:00,0.3,��쐼,1.2,��,-0.6,95,0,0,0.5,15.5,0,0,1006.3,1021
2022-02-21T02:10:00+09:00,0.3,��쐼,1.2,��,-0.8,95.1,0,0,0.5,15.5,0,0,1006.4,1021.1
2022-02-21T02:11:00+09:00,0.3,��쐼,1.2,��,-0.8,94.5,0,0,0.5,15.5,0,0,1006.4,1021.1
2022-02-21T02:12:00+09:00,0.3,��쐼,1.2,��,-0.6,95,0,0,0.5,15.5,0,0,1006.5,1021.2
2022-02-21T02:13:00+09:00,0.3,��쐼,1.2,��,-0.6,95.2,0,0,0.5,15.5,0,0,1006.5,1021.2
2022-02-21T02:14:00+09:00,0.3,��쐼,1.2,��,-0.6,95.1,0,0,0.5,15.5,0,0,1006.5,1021.2
2022-02-21T02:15:00+09:00,0.3,��쐼,1.2,��,-0.7,94.6,0,0,0.5,15.5,0,0,1006.5,1021.2
2022-02-21T02:16:00+09:00,0.2,�É�,1.2,��,-0.8,94.7,0,0,0.5,15.5,0,0,1006.5,1021.2
2022-02-21T02:17:00+09:00,0.2,�É�,1.2,��,-0.7,94.7,0,0,0.5,15.5,0,0,1006.5,1021.2
2022-02-21T02:18:00+09:00,0.1,�É�,0.8,��,-0.8,94.8,0,0,0.5,15.5,0,0,1006.5,1021.2
2022-02-21T02:19:00+09:00,0.1,�É�,0.6,���k��,-0.7,94.6,0,0,0.5,15.5,0,0,1006.5,1021.2
2022-02-21T02:20:00+09:00,0.2,�É�,0.9,���k��,-0.7,94.8,0,0,0.5,15.5,0,0,1006.5,1021.2
2022-02-21T02:21:00+09:00,0.2,�É�,0.9,���k��,-0.6,95.2,0,0,0.5,15.5,0,0,1006.5,1021.2
2022-02-21T02:22:00+09:00,0.2,�É�,0.9,���k��,-0.7,95,0,0,0.5,15.5,0,0,1006.6,1021.3
2022-02-21T02:23:00+09:00,0.2,�É�,0.9,���k��,-0.8,94.8,0,0,0.5,15.5,0,0,1006.6,1021.3
2022-02-21T02:24:00+09:00,0.2,�É�,0.9,���k��,-0.9,94.4,0,0,0.5,15.5,0,0,1006.6,1021.3
2022-02-21T02:25:00+09:00,0.2,�É�,0.9,���k��,-0.8,94.3,0,0,0.5,15.5,0,0,1006.6,1021.3
2022-02-21T02:26:00+09:00,0.2,�É�,0.9,���k��,-0.8,94.6,0,0,0.5,15.5,0,0,1006.6,1021.3
2022-02-21T02:27:00+09:00,0.2,�É�,0.9,���k��,-0.8,94.9,0,0,0.5,15.5,0,0,1006.6,1021.3
2022-02-21T02:28:00+09:00,0.3,��,0.9,���k��,-0.9,94.8,0,0,0.5,15.5,0,0,1006.6,1021.3
2022-02-21T02:29:00+09:00,0.3,��,0.9,���k��,-0.9,94.5,0,0,0.5,15.5,0,0,1006.6,1021.3
2022-02-21T02:30:00+09:00,0.3,��,0.9,���k��,-0.9,94.6,0,0,0.5,15.5,0,0,1006.6,1021.3
2022-02-21T02:31:00+09:00,0.3,��,1.2,���k��,-0.9,94.8,0,0,0.5,15.5,0,0,1006.5,1021.2
2022-02-21T02:32:00+09:00,0.4,��,1.4,��,-0.9,94.7,0,0,0.5,15.5,0,0,1006.5,1021.2
2022-02-21T02:33:00+09:00,0.5,���k��,1.4,��,-0.8,94.9,0,0,0.5,15.5,0,0,1006.6,1021.3
2022-02-21T02:34:00+09:00,0.6,���k��,1.5,�k�k��,-0.6,95.3,0,0,0.5,15.5,0,0,1006.6,1021.3
2022-02-21T02:35:00+09:00,0.7,���k��,1.7,�k��,-0.6,95.4,0,0,0.5,15.5,0,0,1006.6,1021.3
2022-02-21T02:36:00+09:00,0.7,���k��,1.7,�k��,-0.7,95.2,0,0,0.5,15.5,0,0,1006.6,1021.3
2022-02-21T02:37:00+09:00,0.8,���k��,1.7,�k��,-0.7,94.9,0,0,0.5,15.5,0,0,1006.6,1021.3
2022-02-21T02:38:00+09:00,0.8,���k��,1.7,�k��,-0.9,94.7,0,0,0.5,15.5,0,0,1006.6,1021.3
2022-02-21T02:39:00+09:00,0.7,���k��,1.7,�k��,-0.9,94.2,0,0,0.5,15.5,0,0,1006.6,1021.3
2022-02-21T02:40:00+09:00,0.7,���k��,1.7,�k��,-0.9,94.4,0,0,0.5,15.5,0,0,1006.6,1021.3
2022-02-21T02:41:00+09:00,0.7,�k��,1.7,�k��,-0.8,94.8,0,0,0.5,15.5,0,0,1006.6,1021.3
2022-02-21T02:42:00+09:00,0.6,�k��,1.7,�k��,-0.8,95,0,0,0.5,15.5,0,0,1006.7,1021.4
2022-02-21T02:43:00+09:00,0.5,�k��,1.7,�k��,-0.8,94.9,0,0,0.5,15.5,0,0,1006.7,1021.4
2022-02-21T02:44:00+09:00,0.4,�k��,1.7,�k��,-0.7,95,0,0,0.5,15.5,0,0,1006.8,1021.5
2022-02-21T02:45:00+09:00,0.4,�k��,0.9,���k��,-0.7,95,0,0,0.5,15.5,0,0,1006.8,1021.5
2022-02-21T02:46:00+09:00,0.4,�k��,0.9,���k��,-0.7,95,0,0,0.5,15.5,0,0,1006.8,1021.5
2022-02-21T02:47:00+09:00,0.4,�k��,0.9,���k��,-0.7,95,0,0,0.5,15.5,0,0,1006.8,1021.5
2022-02-21T02:48:00+09:00,0.4,�k��,0.9,���k��,-0.7,94.9,0,0,0.5,15.5,0,0,1006.8,1021.5
2022-02-21T02:49:00+09:00,0.4,�k��,0.9,���k��,-0.7,94.7,0,0,0.5,15.5,0,0,1006.8,1021.5
2022-02-21T02:50:00+09:00,0.3,�k��,0.9,���k��,-0.7,94.8,0,0,0.5,15.5,0,0,1006.8,1021.5
2022-02-21T02:51:00+09:00,0.3,�k�k��,0.9,���k��,-0.7,94.8,0,0,0.5,15.5,0,0,1006.8,1021.5
2022-02-21T02:52:00+09:00,0.3,�k��,0.9,���k��,-0.7,94.6,0,0,0.5,15.5,0,0,1006.7,1021.4
2022-02-21T02:53:00+09:00,0.3,�k��,0.9,���k��,-0.7,94.6,0,0,0.5,15.5,0,0,1006.7,1021.4
2022-02-21T02:54:00+09:00,0.3,�k�k��,0.9,���k��,-0.7,94.3,0,0,0.5,15.5,0,0,1006.7,1021.4
2022-02-21T02:55:00+09:00,0.2,�É�,0.8,�k�k��,-0.8,94.1,0,0,0.5,15.5,0,0,1006.7,1021.4
2022-02-21T02:56:00+09:00,0.2,�É�,0.8,�k�k��,-0.6,94.3,0,0,0.5,15.5,0,0,1006.7,1021.4
2022-02-21T02:57:00+09:00,0.2,�É�,0.8,�k�k��,-0.7,94.6,0,0,0.5,15.5,0,0,1006.7,1021.4
2022-02-21T02:58:00+09:00,0.2,�É�,0.7,�k��,-0.8,94.3,0,0,0.5,15.5,0,0,1006.8,1021.5
2022-02-21T02:59:00+09:00,0.2,�É�,0.9,�k��,-0.7,94,0,0,0.5,15.5,0,0,1006.7,1021.4
2022-02-21T03:00:00+09:00,0.3,�k��,0.9,�k��,-0.6,94.2,0,0,0.5,15.5,0,0,1006.7,1021.4
2022-02-21T03:01:00+09:00,0.2,�É�,0.9,�k��,-0.7,94.2,0,0,0.5,15.5,0,0,1006.7,1021.4
2022-02-21T03:02:00+09:00,0.2,�É�,0.9,�k��,-0.7,94,0,0,0.5,15.5,0,0,1006.8,1021.5
2022-02-21T03:03:00+09:00,0.2,�É�,0.9,�k��,-0.7,94,0,0,0.5,15.5,0,0,1006.8,1021.5
2022-02-21T03:04:00+09:00,0.2,�É�,0.9,�k��,-0.8,93.8,0,0,0.5,15.5,0,0,1006.7,1021.4
2022-02-21T03:05:00+09:00,0.2,�É�,0.9,�k��,-0.8,93.7,0,0,0.5,15.5,0,0,1006.8,1021.5
2022-02-21T03:06:00+09:00,0.2,�É�,0.9,�k��,-0.8,93.8,0,0,0.5,15.5,0,0,1006.8,1021.5
2022-02-21T03:07:00+09:00,0.2,�É�,0.9,�k��,-0.7,93.8,0,0,0.5,15.5,0,0,1006.7,1021.4
2022-02-21T03:08:00+09:00,0.2,�É�,0.9,�k��,-0.5,94.3,0,0,0.5,15.5,0,0,1006.8,1021.5
2022-02-21T03:09:00+09:00,0.2,�É�,0.7,���k��,-0.7,94.5,0,0,0.5,15.5,0,0,1006.8,1021.5
2022-02-21T03:10:00+09:00,0.2,�É�,0.6,�쐼,-0.7,93.4,0,0,0.5,15.5,0,0,1006.7,1021.4
2022-02-21T03:11:00+09:00,0.2,�É�,0.6,�쐼,-0.8,93.5,0,0,0.5,15.5,0,0,1006.7,1021.4
2022-02-21T03:12:00+09:00,0.2,�É�,0.6,�쐼,-0.9,93.1,0,0,0.5,15.5,0,0,1006.6,1021.3
2022-02-21T03:13:00+09:00,0.2,�É�,0.6,�쐼,-1,92.8,0,0,0.5,15.5,0,0,1006.7,1021.4
2022-02-21T03:14:00+09:00,0.2,�É�,0.7,�쐼,-0.8,93.1,0,0,0.5,15.5,0,0,1006.7,1021.4
2022-02-21T03:15:00+09:00,0.2,�É�,0.7,�쐼,-0.9,93.8,0,0,0.5,15.5,0,0,1006.7,1021.4
2022-02-21T03:16:00+09:00,0.3,��쐼,0.7,�쐼,-1,93.3,0,0,0.5,15.5,0,0,1006.7,1021.4
2022-02-21T03:17:00+09:00,0.3,��쐼,0.7,�쐼,-1.1,93.2,0,0,0.5,15.5,0,0,1006.7,1021.4
2022-02-21T03:18:00+09:00,0.3,��쐼,0.7,�쐼,-1,93,0,0,0.5,15.5,0,0,1006.7,1021.4
2022-02-21T03:19:00+09:00,0.3,��쐼,0.9,�쐼,-0.8,93.7,0,0,0.5,15.5,0,0,1006.7,1021.4
2022-02-21T03:20:00+09:00,0.3,��쐼,0.9,�쐼,-0.9,94.1,0,0,0.5,15.5,0,0,1006.7,1021.4
2022-02-21T03:21:00+09:00,0.3,��쐼,0.9,�쐼,-1,93.4,0,0,0.5,15.5,0,0,1006.7,1021.4
2022-02-21T03:22:00+09:00,0.3,��쐼,0.9,�쐼,-1,93.3,0,0,0.5,15.5,0,0,1006.7,1021.4
2022-02-21T03:23:00+09:00,0.3,��쐼,1,��쐼,-0.9,93.7,0,0,0.5,15.5,0,0,1006.7,1021.4
2022-02-21T03:24:00+09:00,0.4,��쐼,1,��쐼,-0.9,93.7,0,0,0.5,15.5,0,0,1006.7,1021.4
2022-02-21T03:25:00+09:00,0.4,��쐼,1,��쐼,-1,93.4,0,0,0.5,15.5,0,0,1006.8,1021.5
2022-02-21T03:26:00+09:00,0.4,��쐼,1,��쐼,-1,93.6,0,0,0.5,15.5,0,0,1006.8,1021.5
2022-02-21T03:27:00+09:00,0.4,��쐼,1.2,��,-1,93.5,0,0,0.5,15.5,0,0,1006.7,1021.4
2022-02-21T03:28:00+09:00,0.4,��쐼,1.2,��,-1,93.3,0,0,0.5,15.5,0,0,1006.7,1021.4
2022-02-21T03:29:00+09:00,0.4,��쐼,1.2,��,-1,93.6,0,0,0.5,15.5,0,0,1006.7,1021.4
2022-02-21T03:30:00+09:00,0.4,��,1.2,��,-1,93.8,0,0,0.5,15.5,0,0,1006.8,1021.5
2022-02-21T03:31:00+09:00,0.4,��,1.2,��,-1.1,93.7,0,0,0.5,15.5,0,0,1006.8,1021.5
2022-02-21T03:32:00+09:00,0.4,��쓌,1.2,��,-1.1,93.3,0,0,0.5,15.5,0,0,1006.8,1021.5
2022-02-21T03:33:00+09:00,0.4,��쓌,1.2,��,-1.1,93.3,0,0,0.5,15.5,0,0,1006.8,1021.5
2022-02-21T03:34:00+09:00,0.3,�쓌,1.2,��,-1.1,93.5,0,0,0.5,15.5,0,0,1006.8,1021.5
2022-02-21T03:35:00+09:00,0.4,���쓌,1.3,��,-1,93.7,0,0,0.5,15.5,0,0,1006.8,1021.5
2022-02-21T03:36:00+09:00,0.5,���쓌,1.5,���k��,-1,94.1,0,0,0.5,15.5,0,0,1006.9,1021.6
2022-02-21T03:37:00+09:00,0.4,��,1.5,���k��,-1,94.1,0,0,0.5,15.5,0,0,1006.9,1021.6
2022-02-21T03:38:00+09:00,0.5,��,1.5,���k��,-1,93.9,0,0,0.5,15.5,0,0,1006.9,1021.6
2022-02-21T03:39:00+09:00,0.6,��,2.2,��,-0.9,94,0.5,0.5,1,16,0,0,1006.9,1021.6
2022-02-21T03:40:00+09:00,0.6,��,2.2,��,-1.1,94,0.5,0.5,1,16,0,0,1006.8,1021.5
2022-02-21T03:41:00+09:00,0.7,��,2.2,��,-1.1,93.7,0.5,0.5,1,16,0,0,1006.8,1021.5
2022-02-21T03:42:00+09:00,0.9,��,2.2,��,-1.1,93.7,0.5,0.5,1,16,0,0,1006.8,1021.5
2022-02-21T03:43:00+09:00,1,��,2.2,��,-1.2,93.8,0.5,0.5,1,16,0,0,1006.7,1021.4
2022-02-21T03:44:00+09:00,1.1,��,2.2,��,-1.1,93.8,0.5,0.5,1,16,0,0,1006.7,1021.4
2022-02-21T03:45:00+09:00,1.2,��,2.2,��,-1.1,94,0.5,0.5,1,16,0,0,1006.7,1021.4
2022-02-21T03:46:00+09:00,1.2,��,2.2,��,-0.8,94.5,0.5,0.5,1,16,0,0,1006.7,1021.4
2022-02-21T03:47:00+09:00,1.3,���k��,2.2,��,-0.9,94.5,0.5,0.5,1,16,0,0,1006.7,1021.4
2022-02-21T03:48:00+09:00,1.3,���k��,2.2,��,-1,94.3,0.5,0.5,1,16,0,0,1006.7,1021.4
2022-02-21T03:49:00+09:00,1.1,���k��,2.1,���k��,-1.1,94,0,0.5,1,16,0,0,1006.7,1021.4
2022-02-21T03:50:00+09:00,1.1,���k��,2.1,���k��,-1.1,94.1,0,0.5,1,16,0,0,1006.6,1021.3
2022-02-21T03:51:00+09:00,0.9,���k��,2.1,���k��,-1,94.2,0,0.5,1,16,0,0,1006.6,1021.3
2022-02-21T03:52:00+09:00,0.8,���k��,1.9,���k��,-1,94.6,0,0.5,1,16,0,0,1006.6,1021.3
2022-02-21T03:53:00+09:00,0.7,���k��,1.9,���k��,-1.1,94.2,0,0.5,1,16,0,0,1006.6,1021.3
2022-02-21T03:54:00+09:00,0.6,���k��,1.9,���k��,-1.2,94,0,0.5,1,16,0,0,1006.6,1021.3
2022-02-21T03:55:00+09:00,0.5,���k��,1.9,���k��,-1.1,94,0,0.5,1,16,0,0,1006.7,1021.4
2022-02-21T03:56:00+09:00,0.4,���k��,1.3,���k��,-1.1,94.3,0,0.5,1,16,0,0,1006.8,1021.5
2022-02-21T03:57:00+09:00,0.3,���k��,1.1,���k��,-1,94.4,0,0.5,1,16,0,0,1006.8,1021.5
2022-02-21T03:58:00+09:00,0.3,���k��,1.1,���k��,-1.1,94.4,0,0.5,1,16,0,0,1006.8,1021.5
2022-02-21T03:59:00+09:00,0.3,���k��,1.1,���k��,-1.1,94.1,0,0.5,1,16,0,0,1006.8,1021.5
2022-02-21T04:00:00+09:00,0.3,���k��,1.1,���k��,-1,94.2,0,0.5,1,16,0,0,1006.8,1021.5
2022-02-21T04:01:00+09:00,0.3,��,1.1,���k��,-0.9,94.7,0,0.5,1,16,0,0,1006.8,1021.5
2022-02-21T04:02:00+09:00,0.3,��,1.1,���k��,-1.1,94.3,0,0.5,1,16,0,0,1006.8,1021.5
2022-02-21T04:03:00+09:00,0.3,��,1.1,���k��,-1.1,94.1,0,0.5,1,16,0,0,1006.8,1021.5
2022-02-21T04:04:00+09:00,0.3,���쓌,1.1,���k��,-1.1,94.1,0,0.5,1,16,0,0,1006.8,1021.5
2022-02-21T04:05:00+09:00,0.2,�É�,0.9,�k��,-1.1,94.1,0,0.5,1,16,0,0,1006.9,1021.6
2022-02-21T04:06:00+09:00,0.2,�É�,0.6,��,-1.1,93.9,0,0.5,1,16,0,0,1006.9,1021.6
2022-02-21T04:07:00+09:00,0.2,�É�,0.6,��,-1.2,93.9,0,0.5,1,16,0,0,1006.8,1021.5
2022-02-21T04:08:00+09:00,0.2,�É�,0.9,�쐼,-1,94,0,0.5,1,16,0,0,1006.8,1021.5
2022-02-21T04:09:00+09:00,0.3,��,1.4,��쐼,-0.9,94.7,0,0.5,1,16,0,0,1006.8,1021.5
2022-02-21T04:10:00+09:00,0.4,��,1.8,�쐼,-1,94.4,0,0.5,1,16,0,0,1006.8,1021.5
2022-02-21T04:11:00+09:00,0.6,��,1.8,�쐼,-1,94.1,0,0.5,1,16,0,0,1006.9,1021.6
2022-02-21T04:12:00+09:00,0.7,��,1.8,�쐼,-1,94.3,0,0.5,1,16,0,0,1006.9,1021.6
2022-02-21T04:13:00+09:00,0.8,��쐼,1.8,�쐼,-1,93.7,0,0.5,1,16,0,0,1006.9,1021.6
2022-02-21T04:14:00+09:00,0.9,��쐼,1.8,�쐼,-0.7,94.4,0,0.5,1,16,0,0,1007,1021.7
2022-02-21T04:15:00+09:00,1,��쐼,1.8,�쐼,-0.7,95.2,0,0.5,1,16,0,0,1006.9,1021.6
2022-02-21T04:16:00+09:00,1.1,��쐼,1.8,�쐼,-0.9,94,0,0.5,1,16,0,0,1007,1021.7
2022-02-21T04:17:00+09:00,1.2,��쐼,1.8,�쐼,-1,93.6,0,0.5,1,16,0,0,1006.9,1021.6
2022-02-21T04:18:00+09:00,1.3,��쐼,1.8,�쐼,-1,93.4,0,0.5,1,16,0,0,1006.9,1021.6
2022-02-21T04:19:00+09:00,1.3,��쐼,1.8,�쐼,-1,93.5,0,0.5,1,16,0,0,1007,1021.7
2022-02-21T04:20:00+09:00,1.3,��쐼,1.8,��쐼,-1.1,93.2,0,0.5,1,16,0,0,1006.9,1021.6
2022-02-21T04:21:00+09:00,1.3,��쐼,2.1,��쐼,-1,93.2,0,0.5,1,16,0,0,1007,1021.7
2022-02-21T04:22:00+09:00,1.2,��쐼,2.1,��쐼,-0.8,93.8,0,0.5,1,16,0,0,1007.1,1021.8
2022-02-21T04:23:00+09:00,1.2,��쐼,2.1,��쐼,-0.9,93.7,0,0.5,1,16,0,0,1007.1,1021.8
2022-02-21T04:24:00+09:00,1.1,��쐼,2.1,��쐼,-0.7,94,0,0.5,1,16,0,0,1007.1,1021.8
2022-02-21T04:25:00+09:00,1.1,��쐼,2.1,��쐼,-0.7,94.4,0,0.5,1,16,0,0,1007.1,1021.8
2022-02-21T04:26:00+09:00,1,��쐼,2.1,��쐼,-1,93.2,0,0.5,1,16,0,0,1007,1021.7
2022-02-21T04:27:00+09:00,0.9,��쐼,2.1,��쐼,-1.1,92.5,0,0.5,1,16,0,0,1007,1021.7
2022-02-21T04:28:00+09:00,0.8,��쐼,2.1,��쐼,-0.9,92.9,0,0.5,1,16,0,0,1007.1,1021.8
2022-02-21T04:29:00+09:00,0.8,��쐼,2.1,��쐼,-0.9,93.4,0,0.5,1,16,0,0,1007.1,1021.8
2022-02-21T04:30:00+09:00,0.8,��쐼,2.1,��쐼,-1,93,0,0.5,1,16,0,0,1007.1,1021.8
2022-02-21T04:31:00+09:00,0.7,��쐼,1.4,��쐼,-1,92.6,0,0.5,1,16,0,0,1007.1,1021.8
2022-02-21T04:32:00+09:00,0.6,��쐼,1.4,��쐼,-0.9,93,0,0.5,1,16,0,0,1007.1,1021.8
2022-02-21T04:33:00+09:00,0.6,��쐼,1.4,��쐼,-0.8,93,0,0.5,1,16,0,0,1007.1,1021.8
2022-02-21T04:34:00+09:00,0.6,�쐼,1.6,��,-0.6,93.6,0,0.5,1,16,0,0,1007.1,1021.8
2022-02-21T04:35:00+09:00,0.7,�쐼,1.8,�k��,-0.5,93.9,0,0.5,1,16,0,0,1007.1,1021.8
2022-02-21T04:36:00+09:00,0.7,���쐼,1.8,�k��,-0.7,93.4,0,0.5,1,16,0,0,1007.2,1021.9
2022-02-21T04:37:00+09:00,0.8,���쐼,2.5,��,-0.8,92.5,0,0.5,1,16,0,0,1007.2,1021.9
2022-02-21T04:38:00+09:00,1,��,2.5,��,-0.8,92.2,0,0.5,1,16,0,0,1007.2,1021.9
2022-02-21T04:39:00+09:00,1,��,2.5,��,-0.9,92.2,0,0,1,16,0,0,1007.2,1021.9
2022-02-21T04:40:00+09:00,1,��,2.5,��,-0.9,91.8,0,0,1,16,0,0,1007.3,1022
2022-02-21T04:41:00+09:00,1,��,2.5,��,-0.9,91.4,0,0,1,16,0,0,1007.3,1022
2022-02-21T04:42:00+09:00,1.1,��,2.5,��,-0.6,91.7,0,0,1,16,0,0,1007.3,1022
2022-02-21T04:43:00+09:00,1.2,��,2.5,��,-0.6,91.8,0,0,1,16,0,0,1007.3,1022
2022-02-21T04:44:00+09:00,1.3,��,2.5,��,-0.7,91.1,0,0,1,16,0,0,1007.3,1022
2022-02-21T04:45:00+09:00,1.2,��,2.5,��,-0.7,90.4,0,0,1,16,0,0,1007.3,1022
2022-02-21T04:46:00+09:00,1.2,��,2.5,��,-0.6,90,0,0,1,16,0,0,1007.4,1022.1